Location: Waco, TX
(31.5480°N, 97.1670°W)
Time: 13:23:18
(UTC-05:00)

ISS - Pass Details

Date: 10 May 2021
Orbit: 417 x 422 km, 51.6° (Epoch: 15 May)

Event Time Altitude Azimuth Distance (km) Brightness Sun altitude
Rises 08:25:50 0° 297° (WNW) 2,366 -0.4 21.9°
Reaches altitude 10° 08:28:22 10° 278° (W) 1,499 -1.4 22.4°
Maximum altitude 08:30:45 18° 233° (SW) 1,097 -2.0 22.9°
Drops below altitude 10° 08:33:08 10° 187° (S) 1,493 -1.0 23.4°
Sets 08:35:40 0° 168° (SSE) 2,353 0.1 23.9°
